Theta_e
301 302 302 301 302 303 303 303 304 304 304 303 303 307 303 302 301 312 315 315 308 301 294 297 295 295 296 300 298 298 297 295 297 295 298 295 296 296 296 295 293 295 294 296 295 296 294 295 294 296 298 301 301 305 305 306 304 303 300 300 301 303 294 292 293 297 299 302 302 302 302 301 298 298 300 298 294 295 294 293 295 290 290 289 290 285 290
302 302 302 301 302 302 303 303 304 304 304 302 303 302 302 303 304 305 314 316 311 303 291 291 293 296 298 298 298 299 297 296 295 294 297 295 296 294 294 296 297 294 298 296 294 297 289 296 296 295 299 297 306 305 304 305 301 302 303 297 304 292 296 293 290 289 291 294 297 298 300 300 297 297 299 299 300 299 301 299 297 290 292 292 288 283 289
302 302 302 301 302 302 302 303 304 304 305 305 302 300 306 304 306 307 309 312 312 299 300 296 294 295 295 296 295 296 296 298 298 298 297 298 297 297 296 297 298 295 297 296 296 297 295 294 298 297 299 300 305 305 305 306 303 306 308 311 307 296 295 293 286 284 282 282 283 286 290 294 297 299 299 300 299 298 296 290 292 287 292 294 290 288 295
302 302 301 301 302 302 302 303 304 304 305 304 302 301 305 303 291 300 304 308 308 305 306 302 298 295 295 292 296 297 295 297 298 298 298 300 299 298 298 299 299 296 296 294 293 293 297 294 294 296 298 301 302 305 306 305 304 307 309 310 306 298 300 297 294 291 288 291 293 298 298 296 292 297 298 300 301 301 300 296 290 287 291 291 293 294 297
302 301 301 301 302 302 302 303 303 304 305 304 303 303 303 305 295 296 292 301 302 300 302 300 299 294 299 290 295 294 294 297 297 300 294 298 297 297 297 296 295 295 294 293 293 295 294 296 295 295 298 301 302 305 304 304 306 308 307 308 303 299 294 297 297 298 297 297 297 298 298 294 297 298 298 300 299 300 299 292 290 296 290 287 296 299 296
301 301 300 301 301 302 303 303 304 304 305 304 303 301 307 294 298 302 304 296 292 294 295 300 298 299 298 296 297 294 294 294 292 297 297 298 300 294 296 296 296 295 293 294 290 293 294 295 291 297 298 299 302 300 304 303 306 305 304 307 302 299 290 299 299 297 299 298 298 299 298 298 298 298 298 296 298 298 296 296 299 299 290 287 296 299 297
301 300 300 301 301 302 302 303 304 304 304 304 303 300 306 304 303 303 306 296 298 299 298 300 298 297 297 296 296 294 295 293 296 295 296 296 296 296 289 293 295 295 296 294 292 294 289 288 296 297 297 299 298 295 299 302 305 304 304 305 306 300 293 298 298 296 298 298 298 299 298 297 297 296 297 297 295 297 297 298 299 297 296 299 299 297 294
301 300 300 301 301 302 302 303 304 304 303 305 303 303 300 299 298 298 303 306 300 300 300 299 298 296 296 291 295 295 295 294 296 297 296 291 295 297 294 294 295 295 296 295 292 295 297 297 292 300 298 298 299 296 297 298 302 303 300 301 304 300 292 298 298 294 295 297 298 297 298 297 293 294 295 296 297 297 297 297 297 299 299 298 298 295 292
301 300 300 301 301 302 302 303 304 304 303 304 304 305 308 307 308 306 298 296 298 298 298 296 295 293 294 293 295 295 295 294 297 296 298 297 295 296 294 296 296 297 296 296 296 298 299 299 299 300 298 294 300 296 297 300 296 300 302 301 301 301 293 299 295 290 290 296 296 296 295 295 292 290 291 293 293 293 293 292 296 294 294 298 298 294 291
301 300 300 300 301 302 302 303 304 303 304 303 307 303 310 309 310 308 302 294 296 295 297 298 295 291 296 296 295 295 295 297 297 291 298 299 299 298 298 298 296 295 296 295 297 300 299 300 301 301 301 303 302 302 301 300 297 298 299 301 297 300 297 292 291 288 289 295 296 295 294 293 288 285 289 292 294 296 296 296 296 296 297 293 290 291 295
300 300 300 300 301 302 302 303 304 304 304 303 304 306 308 306 305 305 302 294 292 296 296 294 294 296 297 298 296 297 297 296 297 291 290 298 298 300 299 298 296 294 296 299 302 303 302 302 302 302 301 302 302 302 301 301 302 300 300 299 299 300 297 293 296 287 289 294 295 295 288 282 282 290 294 294 291 293 291 290 292 295 297 294 294 292 293
300 299 300 300 301 301 302 302 303 304 303 305 306 305 309 312 309 305 297 292 291 298 296 293 295 297 296 297 297 296 295 296 296 298 295 297 298 299 299 299 298 290 301 305 304 303 304 303 301 301 301 301 301 302 302 302 301 302 301 299 298 297 296 293 297 289 287 292 292 286 281 282 288 295 295 296 296 296 293 292 293 294 296 296 294 293 291
300 300 300 300 301 301 302 302 303 303 304 305 305 304 312 315 308 304 301 296 292 293 292 295 298 296 297 297 296 297 297 298 299 298 297 298 298 298 298 298 296 298 303 302 302 300 296 295 296 296 297 298 300 301 301 300 299 302 303 302 300 293 293 293 292 292 292 289 288 280 279 288 293 293 295 296 297 294 295 290 292 293 294 295 292 293 292
300 299 300 300 300 301 302 302 303 303 304 305 304 307 311 313 307 305 301 296 292 296 298 295 294 294 296 295 295 297 298 297 298 300 297 299 298 298 300 299 300 302 302 302 299 298 294 295 290 291 291 294 295 294 298 299 299 300 301 301 302 301 299 294 290 292 286 286 286 284 289 288 289 289 291 291 288 289 288 285 287 293 293 295 293 293 293
300 299 299 300 300 301 302 302 303 303 304 305 305 306 310 313 311 309 308 302 293 295 297 290 294 295 295 296 294 294 294 295 294 295 297 300 298 300 301 301 303 302 303 299 296 297 292 292 287 286 287 288 283 286 295 293 298 300 300 301 302 302 294 296 290 287 291 285 282 282 283 280 283 290 294 297 296 295 294 291 287 293 294 295 294 292 292
300 299 299 300 301 301 302 302 303 304 304 305 306 308 312 315 313 309 305 301 296 289 293 299 299 296 294 294 295 294 293 292 294 296 296 297 298 300 301 302 303 303 301 298 297 294 292 288 286 285 284 285 289 287 286 292 293 298 301 300 300 301 300 295 292 288 288 286 283 282 280 280 287 289 294 296 298 297 295 290 284 291 294 295 294 293 293
300 299 299 300 301 301 302 302 303 304 304 305 304 308 311 314 309 308 306 305 300 291 298 298 299 298 295 293 293 294 297 292 295 291 291 293 296 298 299 301 304 302 299 298 296 292 290 288 288 289 289 292 286 285 290 288 288 291 297 299 298 296 294 293 289 287 287 286 283 280 283 281 287 292 294 296 298 298 292 283 281 290 293 296 295 294 294
299 299 299 300 300 301 302 303 303 304 305 305 305 307 311 316 314 310 306 303 295 294 297 299 299 296 294 296 295 297 298 296 296 297 294 297 296 296 297 299 298 301 303 294 295 290 288 288 286 286 285 293 293 291 284 288 285 287 290 291 290 290 290 291 286 287 285 284 282 284 284 288 292 293 296 296 298 294 285 280 284 292 294 297 296 295 296
299 299 299 300 300 301 302 303 304 304 305 305 307 310 313 310 312 315 308 303 298 291 297 300 300 299 301 302 298 297 297 299 298 293 292 292 295 298 299 300 301 294 299 293 295 290 288 288 292 289 288 289 293 286 291 285 285 289 291 288 288 288 289 288 289 286 285 286 283 282 283 288 294 295 297 296 292 283 282 288 295 295 296 296 296 295 296
299 299 299 300 300 301 302 303 304 305 305 306 306 307 309 312 312 311 306 301 298 295 298 299 300 297 301 299 297 297 298 298 298 295 293 290 299 299 296 292 298 299 295 298 289 293 289 286 288 292 288 289 291 295 289 289 294 290 289 291 288 287 286 285 284 286 287 286 283 282 278 287 295 295 294 294 286 285 291 293 296 297 296 295 295 295 294
299 299 299 300 301 302 303 303 304 305 305 306 305 308 304 311 314 314 314 309 299 293 294 301 301 299 300 300 301 299 297 294 296 295 297 299 301 299 288 287 294 296 290 292 287 288 289 287 289 289 293 290 290 291 285 287 290 295 294 290 289 293 286 285 285 288 283 281 279 278 285 291 295 293 285 290 291 294 294 294 293 296 296 295 294 294 294
299 299 299 300 301 302 303 303 304 305 305 306 305 310 304 308 311 311 310 308 300 296 298 301 302 301 302 303 302 303 300 300 301 302 300 297 302 299 297 299 298 298 298 299 295 292 295 295 296 290 287 291 296 288 290 287 284 290 295 293 284 292 289 290 284 288 285 282 284 290 293 294 295 295 293 293 295 295 295 294 293 293 294 296 294 293 294
298 299 299 300 300 301 302 303 304 305 305 306 306 312 302 305 308 313 309 302 303 303 304 303 303 302 303 302 303 304 304 305 306 305 304 300 297 301 300 300 297 302 302 301 296 297 295 295 289 293 290 292 290 288 289 289 286 290 287 294 291 295 294 294 291 288 292 293 293 294 294 294 294 296 296 295 294 295 295 294 292 293 294 296 295 294 294
298 298 299 300 300 301 302 303 304 304 305 305 305 310 305 306 307 308 304 303 299 296 300 303 299 293 297 297 301 304 304 304 306 309 311 310 298 295 301 301 302 302 301 302 307 297 295 295 294 295 288 292 294 288 286 285 287 291 290 290 294 295 296 293 288 291 288 283 294 292 293 294 295 294 295 296 296 295 295 293 293 294 295 295 296 296 295
298 298 299 299 300 301 302 303 304 304 304 305 306 313 310 308 311 310 303 293 295 295 289 292 295 299 301 303 304 303 303 306 308 309 310 309 306 300 298 304 308 301 298 302 306 300 296 292 293 291 287 293 295 287 293 288 287 294 287 289 290 289 297 291 291 289 286 286 291 293 295 295 296 295 294 293 294 295 295 295 295 295 296 296 296 296 295
298 298 299 299 300 301 302 303 303 304 304 305 306 311 307 307 311 313 309 306 303 299 291 290 295 302 303 302 300 302 305 306 306 307 308 307 308 308 306 307 307 311 306 305 304 296 293 293 292 292 290 290 298 290 288 292 291 293 289 287 293 293 295 287 291 288 290 292 292 293 294 294 294 295 296 296 296 295 295 295 295 295 295 295 296 297 297
298 298 299 299 300 301 302 303 303 303 304 304 306 314 308 308 313 310 307 306 298 291 293 290 295 299 301 299 302 304 304 305 307 306 306 307 307 308 308 308 305 305 304 302 303 296 294 293 292 290 294 292 297 294 295 292 292 289 289 293 296 293 288 292 290 286 286 286 289 293 286 286 291 294 295 296 297 297 296 296 295 295 295 295 295 295 296
298 298 299 299 300 301 302 302 303 303 304 305 309 314 312 308 309 309 310 312 304 293 292 292 294 297 303 299 302 304 304 305 305 305 305 306 307 308 306 304 304 301 300 298 293 292 292 290 290 292 292 296 293 290 295 295 294 291 291 292 295 292 293 293 287 287 286 291 292 293 293 292 292 294 297 298 297 297 295 295 295 295 296 296 295 294 295
298 298 299 299 300 301 302 303 303 303 304 305 312 312 307 309 311 311 312 312 310 304 296 296 300 299 291 296 303 303 304 305 305 304 304 303 304 304 303 302 301 300 300 298 295 294 293 293 294 293 293 299 294 289 291 286 286 285 289 294 295 296 297 295 293 293 293 295 294 295 294 291 293 296 296 296 297 296 296 296 297 296 296 296 296 296 294
298 298 299 299 300 301 302 302 303 303 304 308 312 307 298 301 309 311 312 311 312 309 294 291 289 290 302 301 300 301 302 304 304 305 304 302 303 302 302 302 301 301 300 296 295 291 293 293 293 299 299 302 293 291 288 288 286 288 294 295 296 297 298 298 298 295 292 296 296 296 295 295 297 297 298 298 299 298 296 295 296 296 296 297 296 296 297
298 298 299 299 300 301 302 302 303 304 304 312 307 295 293 290 300 311 308 312 314 308 296 295 291 295 294 301 302 299 301 302 303 303 303 303 302 302 302 302 300 299 294 294 294 293 294 291 292 294 298 298 294 290 288 287 285 288 293 295 295 296 296 296 297 297 297 296 297 297 296 296 296 295 295 296 297 298 297 296 297 297 296 296 296 296 295
298 298 299 300 300 301 301 302 303 303 308 306 303 300 303 304 308 307 309 312 314 307 294 290 289 290 290 295 301 303 302 302 303 303 302 303 300 302 301 301 297 301 297 294 295 294 293 294 292 294 294 297 294 290 290 287 285 287 293 294 296 296 297 297 297 297 297 298 296 295 294 294 296 294 292 296 297 297 297 297 297 297 297 297 297 297 296
298 298 299 300 300 301 302 303 303 303 305 305 304 304 304 302 303 307 309 314 309 302 301 293 288 289 289 293 301 302 302 302 300 301 298 303 299 300 297 300 300 298 302 296 292 290 295 293 293 292 295 299 291 290 289 286 288 293 294 294 295 296 296 296 297 297 297 297 297 292 291 292 294 295 296 296 296 296 296 296 296 297 296 296 296 295 295
298 299 299 299 300 301 302 302 303 303 304 306 307 308 311 304 308 305 314 316 307 305 299 291 288 288 288 298 294 298 301 296 297 299 292 301 302 300 295 298 298 292 296 294 294 294 294 292 291 290 294 291 292 289 285 289 293 293 294 294 295 295 296 295 296 296 296 297 297 296 296 296 296 296 296 296 295 296 297 297 297 296 295 295 295 295 295
298 299 299 300 301 302 302 303 306 307 305 305 305 309 310 303 303 305 314 309 294 292 292 292 293 288 288 290 289 294 302 298 292 297 292 296 303 297 297 292 294 291 291 301 293 292 290 291 295 290 287 293 289 285 287 290 292 293 294 294 295 295 295 293 294 296 296 297 296 296 296 296 295 294 294 295 295 296 295 295 296 295 294 294 294 295 295
298 299 299 301 301 302 304 306 306 307 303 302 303 307 301 306 309 319 313 317 307 295 291 290 292 289 290 286 286 291 301 296 298 299 298 295 296 299 298 294 290 293 300 294 290 294 290 296 293 287 290 287 285 288 289 292 292 293 294 294 295 295 295 294 294 295 296 296 297 297 296 296 295 294 295 295 295 295 295 295 295 295 295 294 295 295 295
298 299 300 301 303 303 302 300 305 306 305 307 310 306 302 307 311 310 311 307 310 307 298 291 290 291 294 290 292 292 298 289 296 293 295 293 290 293 294 291 288 291 291 290 290 289 293 299 291 287 287 286 288 293 294 294 294 294 294 294 295 296 295 295 296 295 294 295 295 295 295 294 294 295 295 294 295 295 295 294 294 294 295 295 294 294 295
299 299 300 302 303 296 295 297 305 310 306 302 301 304 303 304 295 296 297 295 300 302 296 299 291 294 296 293 288 297 297 291 298 290 291 293 290 290 293 290 289 291 286 288 291 298 294 291 289 287 287 292 294 294 294 295 295 296 295 296 296 296 296 296 296 294 292 291 291 292 293 293 293 294 294 294 295 294 295 295 296 296 296 295 296 295 295
298 301 302 304 301 293 295 302 310 301 313 305 307 297 293 297 294 290 291 294 294 292 296 296 292 296 295 292 294 301 299 292 291 292 287 294 290 286 291 286 289 290 287 287 290 299 287 287 288 287 286 290 290 293 295 295 296 296 296 296 296 296 296 297 297 296 295 294 294 295 295 293 293 293 295 295 295 295 296 296 297 296 296 296 296 296 296
300 300 297 299 297 298 302 305 302 303 305 297 298 295 289 294 290 287 294 289 289 292 294 290 297 297 298 293 292 293 301 298 289 288 290 291 297 288 289 289 290 288 282 284 287 297 287 283 286 286 284 288 290 294 294 295 294 295 296 297 297 297 297 296 296 297 296 296 297 296 296 296 296 295 295 295 295 294 295 295 296 296 296 296 296 296 295
301 303 301 296 300 301 300 302 305 305 298 293 292 292 290 288 292 292 290 288 288 289 296 296 298 296 297 298 296 292 299 303 300 299 294 288 295 295 288 285 290 286 284 284 289 291 289 286 286 285 286 290 291 294 295 295 294 295 296 297 297 296 296 296 296 296 295 295 296 296 296 296 296 296 296 296 296 295 295 294 295 296 296 297 296 296 297
303 303 304 307 303 303 303 302 300 294 293 293 288 285 288 289 292 290 291 286 287 291 295 297 291 294 293 296 296 298 295 301 296 292 291 287 291 290 287 288 289 285 282 288 291 290 288 283 284 285 289 292 294 295 294 294 294 294 295 296 296 297 296 296 296 297 297 297 296 296 296 297 296 296 296 296 296 296 296 296 296 296 296 297 298 297 298
302 304 305 303 299 296 297 292 293 292 285 285 284 284 287 285 287 286 287 292 294 294 293 302 298 299 300 301 297 300 296 301 294 292 290 287 292 291 287 286 285 283 286 291 289 286 284 283 284 286 292 293 294 294 295 295 295 295 295 296 297 297 296 296 296 296 297 297 296 296 296 296 296 296 296 297 296 296 296 296 296 297 297 297 298 297 297
306 305 300 295 292 292 293 283 292 288 285 286 284 280 283 283 285 288 287 289 293 293 296 295 294 295 290 298 294 291 292 296 295 293 290 291 289 286 285 283 285 290 293 287 286 283 284 286 289 290 293 294 295 295 294 295 295 295 295 296 296 297 296 295 295 294 294 296 296 295 296 296 296 297 297 296 295 296 296 296 297 298 297 297 297 297 298
298 295 292 290 287 290 288 279 290 286 281 284 286 285 285 283 286 288 288 293 295 294 296 298 296 295 292 297 295 294 293 290 294 290 285 288 286 286 284 284 288 288 285 283 285 285 285 285 290 292 292 292 294 295 295 295 295 295 295 295 295 296 296 296 295 296 295 296 296 296 296 295 296 296 296 297 297 297 296 296 297 296 297 297 297 297 298
293 290 288 283 277 285 287 283 284 282 287 288 287 290 289 291 292 292 296 297 296 296 295 296 296 296 292 295 291 289 293 292 288 288 289 289 285 283 288 291 289 284 284 284 282 282 283 288 290 292 293 294 294 295 295 296 297 296 295 295 295 296 296 296 296 296 296 296 295 296 295 294 296 296 296 297 296 297 297 298 298 298 298 297 296 296 299
293 292 291 288 283 286 289 284 283 287 290 291 292 294 294 295 296 297 297 299 297 297 298 298 298 296 292 291 292 291 292 292 288 289 291 285 284 286 290 286 282 283 281 280 282 283 286 290 291 294 294 295 295 295 295 295 295 296 296 296 296 296 296 296 295 296 296 296 296 296 296 296 296 296 296 296 297 297 296 297 298 298 298 297 297 297 298
288 291 291 282 280 285 284 287 292 293 294 295 295 297 298 299 297 295 298 300 300 299 297 296 293 294 292 297 295 290 290 291 287 288 290 287 288 285 283 283 282 284 285 283 284 288 289 292 293 294 295 296 295 295 295 295 296 296 296 296 296 296 295 295 295 295 295 296 296 296 296 296 296 296 295 296 296 296 297 297 298 299 299 298 298 298 297
293 290 287 286 287 287 288 292 293 291 293 296 297 297 296 296 295 296 299 301 299 298 299 296 292 292 289 291 290 289 286 289 284 284 288 286 283 279 280 278 281 280 285 288 288 290 291 293 295 296 296 296 295 296 295 296 296 296 296 296 296 296 296 296 296 296 295 296 296 296 296 296 296 296 296 296 295 296 298 298 298 298 298 298 297 297 297
290 289 291 289 288 289 292 293 292 290 292 294 294 294 296 296 295 297 300 298 300 298 297 295 295 292 290 290 286 287 286 288 287 287 285 282 283 284 283 280 282 283 285 289 290 292 294 295 295 295 295 296 296 296 295 296 295 295 296 296 296 296 296 296 296 295 296 296 296 296 296 295 294 295 296 295 296 297 297 297 298 297 297 298 298 298 297
293 291 290 294 289 288 291 286 288 289 289 291 292 293 295 295 296 296 301 300 299 296 293 289 290 290 288 287 285 282 285 290 287 284 284 283 286 285 283 282 284 288 290 293 295 295 295 295 295 295 295 296 295 296 296 296 296 296 296 296 296 296 296 297 297 296 295 295 296 291 293 295 296 297 297 297 297 296 296 296 297 297 297 298 298 298 298
289 287 288 292 296 295 294 294 295 294 293 294 295 296 298 296 297 298 301 299 297 292 290 292 290 287 285 283 285 289 290 288 285 285 284 286 288 285 285 286 288 291 292 293 294 295 295 296 296 295 296 295 295 296 296 296 296 296 296 296 296 296 296 296 296 296 296 296 296 296 296 297 297 297 298 297 296 295 294 295 296 297 298 298 299 299 298
Wind_Speed
13 14 14 13 14 14 15 15 15 14 15 10 8 9 6 7 3 5 9 8 11 8 6 7 7 9 7 3 1 6 4 6 2 4 4 6 6 4 4 5 5 5 7 5 6 4 6 5 6 3 2 5 2 3 9 10 8 6 5 12 5 6 3 6 9 8 12 11 6 10 13 15 13 11 11 11 12 10 9 7 2 5 3 6 2 2 2
13 14 14 13 14 14 15 15 15 14 12 8 8 7 6 1 1 4 6 8 8 6 5 4 5 9 3 3 7 1 3 5 4 5 4 5 7 7 4 5 5 8 4 6 5 2 3 4 7 5 5 2 10 6 7 5 3 7 5 5 7 3 6 8 7 6 9 7 7 7 10 10 6 6 8 13 5 6 4 6 7 2 5 3 1 2 1
14 14 13 13 14 14 15 15 15 14 12 8 5 4 3 2 1 5 6 8 7 4 6 5 2 7 3 3 6 4 7 3 7 8 5 4 4 3 4 5 2 6 2 5 5 6 7 4 7 1 7 4 5 8 6 6 4 2 5 9 6 3 2 7 7 7 8 8 7 6 1 5 7 8 10 9 9 3 3 2 4 0 2 6 2 3 4
14 13 12 13 14 14 15 14 13 12 10 8 4 5 4 2 2 5 6 7 7 8 8 7 8 3 4 3 5 7 4 4 2 5 7 5 4 0 5 4 4 6 5 6 6 8 6 8 3 5 5 3 2 5 16 4 4 2 4 8 2 2 5 5 5 3 2 4 4 2 3 6 7 8 13 16 15 12 5 5 2 1 5 2 3 7 9
13 12 12 12 13 14 14 14 12 12 9 8 4 5 5 1 2 4 4 7 8 7 8 9 7 2 4 3 4 8 5 4 3 4 6 6 5 5 5 7 6 4 4 4 6 6 9 9 10 4 7 4 2 6 11 20 4 2 4 4 4 3 2 4 5 5 5 7 6 3 2 0 6 13 13 14 16 16 11 4 4 5 5 2 3 12 9
13 12 11 13 13 14 14 13 12 11 9 8 4 4 4 2 3 6 3 3 4 5 6 8 3 3 5 2 2 2 6 6 4 3 6 7 4 3 5 8 6 4 6 5 4 6 8 7 4 5 5 6 8 5 7 8 3 7 4 5 3 4 2 5 7 6 5 4 6 7 7 8 10 13 13 15 14 15 11 9 9 6 2 5 8 7 10
13 11 11 13 13 14 13 13 12 11 8 6 5 5 3 5 3 4 9 4 3 2 2 3 3 3 4 1 3 3 3 4 3 2 5 7 1 6 1 5 9 10 3 4 4 5 6 3 5 4 3 7 4 5 7 10 17 8 8 6 3 3 1 2 2 4 5 6 8 14 11 5 12 15 15 13 10 6 7 11 9 8 5 8 10 13 12
12 11 11 12 13 14 14 14 12 10 11 8 7 7 4 2 2 1 4 5 4 3 2 2 4 4 5 3 4 1 3 3 2 5 3 1 7 3 7 4 5 3 7 3 6 2 5 3 3 5 7 5 3 1 3 4 10 4 3 4 3 4 2 3 2 2 3 2 6 5 8 9 13 15 15 13 8 8 10 11 11 2 6 7 9 10 7
11 10 11 12 13 13 14 14 12 11 10 5 6 5 5 4 5 8 5 1 3 2 4 5 2 2 3 3 4 2 3 3 4 6 0 4 3 4 6 3 5 4 4 4 4 4 2 0 3 2 1 0 2 3 3 8 6 5 5 5 4 3 1 1 2 1 2 3 4 1 5 11 15 17 16 14 12 9 7 7 6 7 7 1 6 4 4
11 10 11 12 13 13 14 14 13 11 11 6 5 5 4 7 10 8 5 2 1 4 4 2 5 3 2 2 4 3 3 3 2 1 6 5 4 4 5 2 5 3 6 3 2 6 5 7 8 4 2 1 1 3 1 4 3 2 1 1 3 1 3 3 0 2 2 3 0 0 1 3 3 10 10 9 9 8 9 10 12 11 9 5 2 6 5
10 10 11 12 13 13 14 14 13 11 8 5 5 5 5 4 6 7 3 2 2 4 2 2 3 7 5 3 3 2 4 3 5 1 1 4 5 2 2 3 2 3 4 2 3 5 6 6 7 4 5 2 2 2 2 1 3 1 2 0 1 1 2 1 4 1 1 1 2 2 4 4 3 2 5 6 6 8 10 9 10 13 9 6 8 9 9
10 10 11 12 13 13 14 13 13 11 8 6 7 8 7 6 6 7 4 3 2 2 2 2 6 5 5 6 4 2 3 4 2 1 3 5 3 5 5 6 2 2 5 3 6 6 8 8 6 6 6 1 3 3 2 3 1 3 2 2 2 2 1 0 3 2 2 2 5 1 4 3 3 2 7 6 3 8 13 11 11 11 10 9 9 9 9
11 11 11 12 13 14 14 13 12 12 10 7 6 7 7 6 6 6 7 7 0 2 2 2 5 3 6 8 5 4 4 4 5 2 5 3 5 3 2 3 2 2 2 7 4 5 7 5 6 6 7 6 6 4 4 5 1 3 3 2 3 2 3 1 2 1 1 0 2 3 4 3 5 5 10 9 4 9 5 11 11 11 11 7 9 8 8
11 11 12 13 14 14 14 14 13 13 11 8 7 8 8 8 5 5 5 4 2 3 6 2 4 4 4 2 2 5 6 8 5 4 6 5 5 3 3 3 3 5 4 3 5 5 5 3 3 4 5 5 1 5 5 6 8 5 5 0 1 1 1 1 2 2 1 2 3 6 10 7 11 4 8 8 4 5 4 4 6 10 9 8 7 7 7
11 11 12 13 14 15 15 15 14 14 12 11 7 8 9 7 5 5 5 5 5 2 2 2 4 7 2 2 2 4 1 1 3 4 5 0 4 6 5 6 4 4 5 4 4 4 3 2 2 2 2 1 1 3 6 4 4 3 1 3 3 2 1 1 2 1 1 5 6 3 4 3 5 7 6 4 5 1 1 1 4 8 9 8 6 6 5
12 11 12 14 15 15 16 16 15 15 14 13 8 7 9 6 4 5 7 6 5 2 3 6 8 6 3 5 3 6 6 4 3 2 4 6 7 8 5 1 2 3 6 5 4 2 2 3 3 3 3 2 3 6 1 2 3 6 3 4 6 7 6 2 1 3 3 2 4 1 3 4 4 9 9 6 4 2 1 2 4 5 9 6 5 5 4
12 12 13 14 15 16 16 17 16 15 13 12 8 7 5 3 4 4 5 6 3 6 4 4 2 2 4 4 2 5 3 1 4 3 4 4 5 5 9 3 2 5 4 4 4 4 3 3 2 5 1 6 6 2 3 3 3 5 5 4 6 6 3 3 3 2 1 3 4 4 4 4 8 9 7 6 2 1 2 3 3 5 9 5 4 4 5
11 12 13 14 15 16 17 17 17 16 15 12 8 6 6 1 2 5 4 7 2 3 5 4 3 3 3 5 2 6 3 3 3 3 2 3 5 7 5 3 5 4 4 3 3 3 2 3 3 4 1 5 1 3 0 4 3 0 5 4 4 3 4 3 4 5 6 7 6 5 4 2 9 10 6 7 5 2 1 4 2 4 7 3 5 7 7
12 13 13 14 15 16 17 17 17 17 16 14 10 8 7 2 1 4 4 8 1 2 5 4 3 3 6 1 4 2 3 6 5 2 2 3 2 3 3 2 2 2 4 1 3 2 2 1 3 1 2 3 1 2 5 1 1 4 6 6 6 5 2 1 3 5 3 4 7 6 4 3 11 11 5 9 3 2 4 2 4 7 1 5 6 9 9
11 13 14 14 15 16 17 17 18 17 15 14 9 5 5 3 1 3 4 6 4 4 3 3 2 6 4 8 5 3 4 6 3 3 5 2 2 5 2 1 3 3 3 1 1 2 1 1 1 2 1 2 1 2 4 5 7 4 6 10 6 3 1 4 5 1 1 2 6 4 4 6 14 11 2 12 3 3 1 3 4 9 9 10 10 9 9
11 13 14 15 16 16 17 18 17 17 15 12 9 5 2 2 3 3 6 7 3 2 3 3 6 9 7 7 7 7 8 7 6 5 5 4 4 4 2 3 1 2 2 1 0 1 2 0 3 1 2 1 5 1 3 5 9 11 8 7 9 10 2 3 3 4 3 5 5 4 3 5 10 10 6 6 6 4 5 3 5 7 7 8 8 9 10
11 12 14 15 16 17 18 18 18 17 17 15 14 5 4 3 1 2 5 2 3 3 6 7 7 7 7 6 5 4 6 7 6 4 5 4 2 2 2 2 5 3 3 2 4 2 4 4 3 2 3 3 1 4 2 4 7 8 11 6 5 9 8 4 8 6 4 5 5 5 6 7 8 9 8 8 8 7 8 8 8 7 7 7 8 10 10
11 12 14 15 16 17 18 19 19 18 18 17 12 5 3 4 2 4 0 6 5 5 4 5 4 6 7 7 5 5 6 5 4 3 5 5 3 5 9 5 6 4 3 3 3 2 2 7 5 7 5 0 3 6 7 7 6 7 7 7 10 12 15 12 15 15 16 13 10 8 9 10 10 9 8 8 9 8 8 9 8 8 8 7 7 8 10
10 12 14 15 16 17 18 19 20 19 19 18 10 6 1 5 6 3 4 3 2 4 3 3 3 3 5 7 6 5 4 6 5 4 2 3 4 3 6 5 5 3 1 3 4 4 5 4 7 5 6 2 4 3 6 8 8 11 10 8 7 10 9 9 10 10 6 7 7 11 11 10 11 11 11 10 9 9 9 9 8 7 7 9 9 9 8
11 12 14 15 16 17 17 18 19 20 20 18 16 11 1 2 3 7 0 3 3 1 3 2 4 4 5 4 4 5 5 4 3 3 3 2 3 5 6 5 3 5 6 6 3 5 3 6 5 5 5 2 3 8 6 8 9 8 10 9 7 10 14 16 13 13 10 10 12 13 13 12 11 9 9 10 10 10 10 9 10 10 9 9 8 9 10
11 12 13 15 15 16 17 18 19 19 18 20 14 6 5 4 3 7 7 3 4 3 4 3 5 3 4 5 8 7 5 5 4 7 7 8 7 7 8 5 5 4 6 4 3 4 4 4 4 5 7 7 7 8 9 9 11 11 11 8 11 10 7 9 10 12 13 14 13 14 14 13 12 12 11 9 9 10 10 10 11 11 12 11 11 10 10
11 12 13 14 15 16 17 17 18 18 19 18 11 9 3 4 3 5 6 7 2 4 2 4 4 6 7 9 6 5 5 5 4 5 5 5 6 6 6 9 6 4 3 4 3 4 4 5 5 8 7 6 5 9 9 10 11 9 11 11 8 11 13 14 11 10 8 8 7 6 7 8 9 10 11 12 12 12 12 11 11 11 11 10 11 10 10
11 12 13 14 15 16 16 17 17 18 17 18 11 7 3 1 2 1 5 5 5 1 4 4 5 5 3 10 7 7 7 7 6 6 6 7 6 5 5 6 5 7 7 6 5 4 5 8 9 4 4 6 9 10 11 11 11 11 11 11 11 9 4 4 8 8 9 11 13 12 13 11 10 10 11 11 12 12 11 11 11 10 10 10 10 10 10
11 11 13 14 15 16 17 17 17 17 18 15 6 6 2 0 2 3 6 5 5 4 5 4 5 3 4 6 5 8 5 6 5 5 6 8 8 8 9 10 10 9 10 8 6 6 7 7 4 5 4 2 4 8 7 9 9 11 11 12 12 12 16 18 17 16 15 12 10 10 10 11 10 10 9 10 9 11 12 11 10 10 10 9 9 8 9
10 11 13 14 15 16 17 17 17 16 15 8 5 4 4 4 0 4 6 5 5 6 2 3 4 3 1 4 7 6 8 9 8 8 8 7 8 8 9 8 8 8 7 5 5 7 6 5 4 5 7 3 6 5 7 8 9 11 11 12 12 13 15 14 12 12 12 12 12 12 13 12 11 11 10 9 9 10 10 10 10 10 10 10 9 8 8
10 11 13 14 15 16 17 17 17 18 14 5 4 3 4 4 2 5 8 6 5 5 1 3 5 3 4 4 4 8 8 8 8 8 9 8 8 8 7 7 8 7 6 6 5 6 4 6 5 8 8 9 4 6 9 8 10 11 13 12 12 12 13 13 13 13 12 12 12 12 11 11 9 9 11 11 11 10 10 9 10 10 10 9 9 9 8
11 12 13 15 15 16 16 17 16 14 8 4 3 4 4 3 4 8 9 8 6 4 4 5 4 3 3 2 3 5 7 5 7 6 6 6 9 8 10 9 7 8 6 7 6 6 7 6 6 8 9 9 6 7 9 9 10 10 11 12 10 11 11 11 11 12 12 11 11 11 10 9 8 8 9 9 10 10 10 10 10 9 8 9 8 7 6
11 13 14 15 16 16 17 16 15 8 5 6 9 9 4 3 9 9 7 6 5 3 4 2 3 3 2 6 3 3 2 5 6 4 7 4 8 5 7 7 8 8 7 6 5 5 6 5 5 7 9 7 5 6 10 9 10 10 12 12 11 10 10 10 10 10 9 7 6 7 8 8 9 10 9 8 8 8 8 11 11 8 8 8 7 6 6
12 13 15 16 16 17 17 16 15 13 9 5 1 3 3 4 4 6 8 4 4 2 1 3 3 3 4 4 5 4 6 2 6 3 4 4 5 5 5 6 6 5 4 6 5 5 6 5 7 7 6 7 5 6 8 11 12 12 12 12 11 10 10 10 8 8 7 7 8 9 9 9 8 7 7 7 8 8 8 7 7 5 6 5 6 6 5
12 14 15 17 17 17 17 12 6 4 3 3 4 3 4 8 7 8 5 5 2 1 1 2 1 6 4 3 3 2 5 4 5 4 4 2 3 6 3 3 2 4 4 3 4 5 5 5 7 5 8 6 4 5 6 12 12 12 11 11 10 10 9 10 11 9 8 8 8 8 8 8 8 7 7 6 6 6 8 6 5 6 5 5 4 4 4
13 15 16 17 19 14 8 5 4 4 4 3 4 2 2 7 8 4 4 3 3 2 2 3 3 4 2 4 4 2 6 7 6 4 5 2 5 3 4 4 5 3 2 2 5 5 5 5 3 7 4 4 5 6 8 10 11 11 9 9 7 7 9 11 9 10 9 8 9 7 7 6 5 6 5 5 5 5 5 5 6 4 3 3 4 4 2
14 15 18 17 8 3 3 2 3 3 3 3 2 6 6 5 1 3 4 4 4 1 3 2 4 5 6 5 3 2 3 5 3 5 4 3 4 1 3 2 5 2 4 4 3 3 3 4 6 7 5 6 7 9 9 8 9 9 10 9 7 11 11 9 11 10 10 9 9 7 6 6 5 3 4 4 4 6 3 3 2 3 2 4 3 3 3
14 15 7 4 4 2 2 2 2 2 2 3 3 2 2 3 3 1 1 2 1 3 1 3 3 8 7 6 5 4 3 5 4 4 3 3 3 3 2 3 3 2 5 4 6 6 5 4 5 7 7 9 9 9 9 9 8 8 7 7 7 7 8 9 8 8 7 7 7 6 6 5 5 5 3 3 3 4 4 2 0 2 2 1 2 2 3
11 5 5 5 3 2 2 4 2 3 2 3 2 1 3 2 2 2 1 0 1 2 1 4 3 2 5 6 6 1 3 3 3 5 5 2 1 3 1 3 0 1 5 3 4 3 5 5 5 5 7 7 9 9 9 9 8 7 7 7 8 9 6 6 5 4 5 6 5 5 4 4 4 5 3 3 4 4 4 3 2 0 1 1 1 2 1
4 4 2 3 1 5 4 3 1 2 4 3 2 2 2 3 4 1 1 2 2 0 1 2 2 4 6 8 6 5 1 3 4 5 3 4 3 2 2 1 3 1 4 3 3 3 4 5 4 5 7 5 8 8 8 8 8 7 5 4 5 7 9 8 7 5 5 6 6 6 5 5 4 4 2 4 2 1 1 2 3 1 1 0 3 2 1
5 5 4 3 5 4 5 5 4 4 3 2 1 1 1 1 1 3 1 3 3 3 2 3 3 4 1 6 6 5 3 4 4 6 4 4 0 2 3 3 1 2 3 3 2 3 3 4 4 5 6 7 9 9 9 8 8 7 6 5 6 6 7 6 7 7 8 6 4 6 5 4 4 5 5 3 3 3 6 2 1 2 2 1 1 3 0
4 5 5 7 4 6 6 4 3 2 0 1 1 2 2 1 0 1 2 3 2 2 3 5 3 6 7 7 6 5 2 5 0 2 3 3 0 0 3 2 1 2 3 3 3 2 3 3 4 7 6 9 10 9 9 9 8 8 7 7 7 6 7 6 3 3 7 5 6 5 5 6 4 1 4 5 3 3 3 2 3 0 1 1 1 2 2
17 11 7 2 5 3 2 2 1 0 1 1 1 2 1 2 3 4 3 0 2 4 4 4 6 6 8 5 7 4 3 3 1 3 2 3 1 1 3 2 1 2 3 3 3 3 3 3 4 9 9 10 9 10 9 8 9 9 8 7 6 8 6 6 7 5 6 5 5 4 5 5 2 7 4 2 2 2 4 4 5 4 2 2 2 2 0
7 6 4 1 3 1 1 2 1 1 1 2 2 3 3 3 4 3 3 3 4 3 6 5 6 7 5 2 3 4 2 2 1 2 3 2 1 2 1 3 2 4 2 2 2 4 3 2 5 12 11 9 7 9 10 9 8 7 7 5 2 5 9 7 6 6 5 3 4 4 2 5 2 5 4 4 2 3 3 2 3 2 2 3 2 1 2
3 2 2 2 0 2 0 2 1 1 2 2 3 3 3 4 4 5 3 4 6 8 8 5 7 7 5 4 4 3 2 3 0 0 3 2 2 2 2 3 3 2 2 3 3 3 3 2 9 13 13 11 9 10 9 9 9 7 7 8 7 6 4 4 5 5 3 3 5 1 3 4 2 2 2 2 1 4 2 4 4 2 2 2 3 3 2
3 3 3 3 3 3 1 2 2 2 2 3 4 6 8 6 5 4 8 7 6 8 7 7 7 6 5 3 2 4 2 2 3 2 2 1 3 2 2 3 1 3 2 3 3 5 4 8 9 10 11 11 10 11 9 8 9 10 9 8 7 6 6 6 3 3 4 6 6 2 5 2 1 2 2 4 0 1 3 3 2 5 5 2 2 2 2
2 2 2 1 2 1 2 2 3 3 3 6 6 7 6 7 4 7 4 5 8 6 6 6 6 6 6 3 1 3 2 2 2 3 1 3 2 2 1 1 2 2 3 4 4 4 4 6 10 11 11 11 10 9 7 9 7 6 7 7 5 6 5 5 3 5 6 2 3 3 3 3 1 3 3 1 2 2 3 1 3 2 2 4 3 2 3
3 2 2 2 2 2 4 3 6 4 4 5 5 4 8 6 6 5 4 6 8 7 7 7 7 4 3 1 3 4 4 2 3 1 1 3 1 1 2 1 2 2 2 3 3 3 4 8 12 9 10 10 10 10 10 8 7 10 9 7 7 7 4 5 5 3 4 3 2 2 2 3 3 0 1 3 1 1 1 3 1 2 3 3 3 4 3
1 1 2 2 1 3 4 4 4 5 3 0 1 6 4 5 6 6 5 6 6 6 5 5 4 3 3 3 2 6 3 3 2 2 2 2 2 2 2 3 4 3 3 2 4 3 7 12 13 11 11 10 9 7 9 8 6 7 6 7 7 6 5 4 3 6 1 1 2 2 1 1 3 2 2 1 2 3 1 3 1 2 3 4 3 4 4
2 1 2 2 2 3 6 4 6 4 5 4 4 4 5 5 7 6 6 7 5 7 4 5 1 2 3 2 3 2 3 3 2 2 3 3 2 2 3 4 3 2 4 4 2 9 12 11 12 12 11 11 10 8 9 8 7 6 6 6 6 5 5 6 4 5 6 4 2 4 5 4 3 5 2 3 5 6 4 4 3 2 2 4 4 4 5
2 1 3 4 3 3 3 4 4 4 3 5 6 6 5 7 6 5 2 5 6 4 2 4 3 2 3 2 3 2 2 2 3 4 3 3 2 3 3 3 4 4 2 6 10 9 11 12 10 11 11 10 9 9 8 8 8 7 6 6 6 5 5 5 6 4 3 3 3 1 5 6 2 6 5 4 4 4 5 4 3 4 3 2 3 5 4
2 2 3 2 6 3 5 5 2 4 5 5 6 6 5 8 6 7 6 4 4 4 3 3 2 2 1 3 2 2 2 2 2 3 3 2 2 3 3 4 5 5 5 7 7 9 8 9 9 10 9 6 9 10 9 8 7 7 7 7 6 6 6 5 4 5 5 3 3 2 0 1 2 1 3 2 2 4 5 3 2 6 5 3 3 4 5
Wind_Direction
319 325 324 323 323 326 327 328 329 331 333 329 340 327 250 235 256 357 162 160 183 204 226 195 211 225 216 27 305 96 212 256 204 266 188 217 215 276 223 256 275 274 292 303 279 305 320 316 270 297 310 64 29 82 327 331 286 275 254 247 202 106 225 227 244 224 241 258 320 277 249 236 227 221 232 215 226 229 244 241 133 228 233 241 226 100 338
322 322 320 322 322 325 328 327 330 329 333 328 317 285 265 5 75 246 191 186 206 230 221 203 223 238 142 350 270 239 306 219 192 241 132 260 163 216 230 260 248 290 284 285 288 191 283 248 270 239 112 356 342 297 245 309 352 33 359 323 17 245 183 248 238 225 220 231 288 284 247 236 244 248 233 247 249 302 11 103 119 230 250 233 178 260 95
324 321 320 321 322 325 328 326 327 326 325 326 296 273 318 129 194 299 186 190 211 187 233 266 248 239 215 253 240 203 217 290 294 348 306 186 300 340 314 297 318 240 247 282 273 264 259 293 256 19 98 95 325 327 274 355 324 87 16 340 327 290 247 201 232 230 216 214 218 220 324 321 288 249 276 261 267 109 14 266 58 306 33 37 80 96 147
322 318 321 321 323 328 325 324 322 324 328 323 245 252 270 240 167 173 187 194 201 227 245 255 265 212 174 244 244 223 241 213 154 268 250 301 254 292 302 304 335 278 281 269 271 267 240 250 277 245 59 7 44 329 333 250 305 93 328 287 85 27 349 317 299 333 6 16 298 57 173 318 310 340 30 10 15 10 108 90 41 20 353 69 146 157 143
320 320 320 321 325 325 326 325 325 324 320 326 289 265 260 187 232 170 180 184 217 228 228 229 228 260 149 206 204 247 234 157 224 158 265 187 241 259 237 244 227 255 277 292 286 284 279 247 236 236 135 96 350 349 42 321 253 141 223 244 66 8 355 273 274 294 137 247 326 301 43 277 6 27 14 24 20 13 31 44 72 126 68 291 280 134 135
321 319 320 320 323 325 326 327 323 326 316 327 268 259 181 236 242 221 229 218 178 209 214 224 185 57 239 64 31 250 250 222 180 149 276 292 162 273 227 233 257 250 233 231 253 282 285 301 288 283 85 64 27 358 41 282 178 216 75 1 106 98 258 360 351 318 333 347 348 318 87 57 53 44 41 37 23 29 41 40 32 13 222 202 178 151 115
319 320 319 321 324 327 328 326 326 322 322 308 260 266 174 242 291 220 223 231 116 333 85 196 141 212 245 141 236 257 256 235 237 250 212 231 172 203 235 256 241 226 232 278 280 221 252 308 315 16 356 51 9 4 347 334 327 35 22 45 17 172 205 9 70 307 297 23 3 306 101 46 58 50 54 59 19 37 37 47 49 26 356 88 115 95 80
321 319 319 322 324 327 329 328 329 328 317 287 252 239 241 224 15 282 156 279 151 156 152 82 179 178 116 224 143 306 213 225 252 206 226 277 254 152 282 218 253 331 296 263 234 21 355 61 340 35 342 140 131 131 177 271 297 130 45 314 8 268 105 95 23 246 262 163 207 310 13 106 76 52 49 55 66 60 49 42 19 354 83 81 95 92 89
319 318 320 321 324 327 330 330 332 327 329 277 228 260 228 289 255 295 290 252 77 146 191 197 200 134 177 222 134 207 238 135 225 303 245 221 237 256 256 276 280 292 281 290 43 58 59 272 261 236 174 322 216 187 253 209 240 291 174 166 219 250 127 196 160 274 230 230 288 40 153 98 64 47 33 31 34 46 53 47 19 6 344 117 139 102 84
321 322 322 322 326 329 331 332 331 333 315 289 285 267 316 316 277 246 283 270 73 251 154 178 161 207 94 71 152 155 229 199 136 120 265 191 193 234 263 357 326 281 296 279 332 29 342 335 341 347 231 98 326 282 191 208 303 308 331 150 267 238 175 157 72 274 280 99 289 316 275 222 81 31 19 23 41 42 77 59 35 13 355 16 33 80 77
322 325 322 323 327 330 332 332 332 335 327 311 318 308 320 343 316 311 268 243 176 245 218 152 194 73 121 138 126 117 265 270 119 182 276 265 174 156 326 339 262 289 270 312 349 320 314 302 274 252 288 143 227 252 181 229 281 42 261 346 86 112 222 236 142 244 183 277 138 109 147 187 51 25 15 19 26 38 64 50 31 17 28 68 67 65 58
324 322 323 325 326 328 330 331 331 333 325 305 291 285 277 291 300 287 257 246 200 202 218 45 72 132 230 151 141 207 238 274 236 101 268 348 28 275 266 183 210 246 35 299 276 287 286 264 260 257 262 198 235 150 348 16 61 266 256 255 222 176 94 215 85 240 295 85 76 39 229 88 192 68 34 6 357 66 83 60 39 24 27 62 66 68 75
324 325 324 324 323 327 330 332 332 331 329 318 298 276 294 306 287 284 293 278 330 283 228 142 191 123 190 153 190 190 211 244 215 7 3 301 284 328 282 27 234 305 103 290 320 271 272 274 248 240 226 213 210 245 200 158 114 352 341 181 210 163 201 171 177 256 71 204 154 226 78 133 141 95 34 9 39 21 108 72 40 24 13 45 79 77 84
325 323 323 323 325 328 331 332 332 330 327 321 289 276 293 300 293 289 308 329 292 169 52 106 111 133 50 49 286 204 194 187 228 211 194 201 249 248 264 196 16 30 267 293 263 274 266 252 252 221 243 218 343 218 65 35 30 38 359 67 66 271 96 193 149 10 253 47 69 75 131 112 45 43 17 20 17 7 4 63 48 24 15 24 83 92 100
327 323 324 323 325 329 331 331 331 329 325 320 290 277 268 258 261 283 309 285 284 110 191 359 96 125 135 185 164 242 216 318 260 208 228 236 261 242 263 25 51 308 20 303 269 210 231 257 236 228 252 299 199 228 203 225 129 136 304 21 95 113 186 153 226 117 42 119 111 135 184 87 49 26 19 37 56 28 343 257 103 21 25 24 59 85 99
322 323 325 326 327 329 330 330 331 330 327 326 288 264 261 273 308 278 269 292 295 169 59 71 14 82 185 176 225 250 264 196 192 160 230 169 214 223 193 157 43 322 263 238 264 318 261 228 227 235 234 193 25 334 315 314 165 133 141 139 77 61 82 52 130 117 119 139 139 123 105 78 11 355 345 20 47 17 132 239 79 17 4 33 41 71 80
325 327 328 327 328 328 329 329 330 332 329 335 316 297 287 79 304 312 305 298 298 46 71 92 40 311 283 132 199 236 252 70 257 215 195 207 248 241 124 151 121 228 219 263 259 236 217 220 223 235 288 103 156 250 103 359 290 144 144 156 68 94 96 129 101 93 114 139 93 83 55 73 358 344 338 356 100 155 227 211 81 353 340 354 69 84 91
327 331 329 329 328 327 327 329 330 333 335 333 318 295 302 9 327 332 303 288 253 90 57 8 336 260 347 27 29 35 338 306 250 79 306 152 192 241 122 169 197 140 318 252 248 247 252 232 218 233 179 354 72 126 262 354 293 319 150 127 144 58 59 39 91 87 72 80 95 111 110 73 356 342 335 3 355 272 307 44 1 337 318 48 70 94 63
328 331 332 329 329 327 329 331 333 336 339 337 327 280 241 259 6 317 307 295 64 95 40 54 352 359 328 269 40 272 2 338 321 157 193 199 119 53 136 77 354 201 176 214 228 243 220 218 44 299 201 141 10 71 118 143 247 14 47 118 89 49 61 62 68 84 102 101 90 91 97 23 343 335 22 0 298 28 63 30 297 278 81 71 75 72 73
327 332 332 331 330 331 329 333 334 336 337 338 333 295 322 28 71 304 313 313 86 93 131 96 344 80 41 20 15 340 149 183 18 322 37 355 166 228 208 47 199 221 190 3 179 245 297 264 51 276 84 111 109 254 123 82 85 77 72 42 57 16 20 59 52 44 92 110 107 116 69 24 1 334 47 13 45 60 39 327 354 57 68 69 64 69 77
330 333 332 332 332 333 333 333 335 333 334 332 332 309 265 130 273 273 262 259 104 108 102 70 59 55 41 61 19 26 19 22 10 350 349 299 40 326 113 201 289 24 28 284 18 209 98 15 193 154 103 125 141 280 108 106 79 48 48 65 45 352 86 98 67 334 76 59 56 54 17 6 13 26 61 41 56 60 51 5 55 48 64 79 83 80 87
333 334 333 334 333 336 334 334 334 335 335 336 327 269 240 101 336 337 326 352 96 76 64 59 68 73 67 77 102 39 26 23 25 356 332 337 2 335 72 177 59 4 58 292 174 177 137 169 255 84 60 25 252 123 137 107 83 80 47 35 68 18 63 61 86 14 41 83 96 93 77 57 47 58 75 71 64 66 68 62 50 48 39 61 88 94 99
334 334 335 336 336 336 336 334 336 337 337 337 347 294 148 158 115 313 63 79 83 117 166 134 139 121 121 96 68 58 62 56 40 36 354 340 308 76 42 359 69 44 63 7 64 258 63 77 93 123 135 165 79 98 82 77 88 82 71 54 115 113 101 95 86 85 89 85 89 92 82 72 68 64 67 78 79 68 68 65 67 50 52 50 76 88 98
332 336 337 338 337 336 336 336 338 338 337 335 328 288 187 143 152 187 123 139 140 128 102 73 104 45 39 46 55 59 84 84 62 74 67 339 352 71 115 61 41 62 15 41 312 44 66 70 65 71 75 85 141 86 108 117 95 100 109 124 128 126 111 92 103 144 114 79 107 95 99 96 85 77 72 72 69 73 76 77 75 73 70 78 79 85 87
331 336 337 338 336 336 337 339 339 337 335 335 335 316 60 90 19 340 137 135 170 138 99 76 45 28 77 55 51 77 61 74 111 133 169 217 353 27 81 99 59 102 109 122 153 106 84 89 86 70 74 27 225 108 98 92 95 101 105 104 107 83 83 82 81 87 89 110 99 86 78 71 70 69 74 74 74 79 80 86 96 98 88 85 93 97 96
330 335 337 337 336 336 339 339 339 336 334 329 326 304 242 89 12 339 280 119 96 133 126 102 97 15 32 73 64 58 43 62 77 77 81 77 71 81 102 119 142 185 139 140 114 91 90 79 77 85 75 57 44 71 65 69 95 89 89 75 58 83 109 90 106 101 104 109 107 104 98 90 88 90 85 87 96 98 98 98 102 103 103 99 89 81 82
327 335 334 337 336 338 339 338 338 336 332 331 326 313 358 106 355 15 9 349 290 116 117 109 124 103 80 69 52 67 65 75 66 85 76 80 104 135 142 145 157 134 138 129 58 63 56 63 58 68 55 58 78 89 95 81 64 54 51 46 96 109 106 126 122 111 112 114 121 137 108 95 91 90 99 103 102 107 113 117 111 111 108 105 99 92 80
326 332 335 336 336 336 338 337 336 334 332 327 312 303 357 41 107 24 354 1 352 53 121 126 102 89 64 60 49 54 43 45 51 61 74 71 61 45 79 91 100 114 117 118 112 107 103 95 89 99 97 85 70 70 66 73 63 59 57 54 38 49 35 144 107 109 105 99 91 88 91 93 89 104 116 110 103 98 93 93 96 99 104 109 110 108 102
324 329 334 333 335 335 335 335 333 330 330 323 300 283 159 323 110 25 38 352 335 306 107 96 116 112 66 56 34 86 76 92 84 74 73 77 75 71 62 61 65 69 66 60 65 65 68 66 64 68 58 339 83 93 92 75 68 66 64 70 61 59 65 75 87 97 97 99 104 100 102 103 108 99 88 83 86 94 101 99 96 94 92 92 89 91 96
321 329 331 332 332 333 333 332 329 327 327 311 288 237 155 129 291 38 21 347 338 318 136 124 101 84 49 55 81 80 83 67 62 62 71 71 71 64 67 74 70 71 79 81 85 86 81 87 73 78 86 76 88 92 90 93 90 88 81 75 70 71 68 71 81 92 99 97 100 104 105 105 103 103 98 95 87 82 85 94 102 104 99 103 107 105 102
321 327 328 328 329 331 328 328 327 327 318 291 261 197 160 155 119 44 2 341 327 308 102 105 92 103 78 3 55 79 73 73 65 63 57 52 58 76 85 94 96 98 98 95 89 90 102 84 83 68 64 50 74 96 93 92 91 88 75 70 70 75 83 90 94 96 101 101 99 99 100 98 99 98 94 100 107 102 96 91 94 103 116 107 103 104 106
320 322 324 325 327 327 324 322 326 327 307 336 348 2 3 3 354 318 313 300 310 277 120 121 140 122 86 78 34 83 92 93 121 114 90 80 73 60 62 60 70 66 65 76 66 71 59 57 63 70 71 47 50 86 84 87 91 88 96 92 86 90 97 101 98 98 102 109 114 108 103 101 99 96 103 103 105 109 113 114 110 119 114 106 105 104 107
316 320 321 323 323 322 319 317 319 327 319 313 294 284 278 263 283 277 318 328 296 218 150 123 95 134 138 106 121 42 40 132 108 119 94 86 95 105 102 109 100 93 73 84 78 80 74 78 70 71 62 74 86 92 93 88 90 99 100 101 100 98 92 87 92 98 98 99 97 101 97 100 104 101 102 102 104 117 124 135 146 155 123 111 117 114 103
313 318 319 319 319 317 316 314 303 293 272 258 202 122 109 11 324 341 334 301 287 36 269 112 147 123 108 197 160 135 248 231 93 96 104 103 106 97 89 82 69 78 64 81 96 93 86 82 83 85 84 69 72 90 88 97 109 108 101 101 108 111 114 112 106 99 93 89 89 96 103 104 106 106 103 96 95 85 87 97 104 105 86 105 119 132 135
313 314 318 316 315 314 308 297 296 239 228 182 89 68 2 348 331 297 308 348 313 156 150 139 115 118 147 192 153 89 306 149 112 97 106 140 207 114 138 99 116 97 98 127 101 100 113 101 111 95 85 100 93 89 113 126 125 116 114 113 114 111 109 107 108 111 113 103 97 105 113 120 121 113 102 107 107 97 92 95 114 118 127 128 119 110 123
314 314 314 314 308 297 287 243 237 254 206 108 85 90 3 298 305 304 322 289 304 321 145 132 169 147 148 143 134 130 273 96 107 101 58 112 100 65 86 98 98 71 167 122 97 106 99 141 130 97 126 107 94 110 112 117 116 115 118 119 109 83 93 100 102 102 101 103 104 110 117 123 116 115 130 112 98 100 91 99 89 98 101 103 96 106 102
312 316 311 296 280 215 239 213 137 1 19 37 349 337 296 297 221 279 230 265 189 209 288 181 192 166 171 113 105 144 233 128 190 121 183 142 98 115 124 110 90 114 104 105 110 108 82 77 95 102 91 96 95 97 98 92 94 100 103 92 105 132 123 109 113 123 127 135 139 134 129 124 132 141 115 108 109 73 80 70 85 102 104 100 98 104 105
316 310 294 242 216 215 162 120 68 56 7 334 316 145 178 236 157 164 197 225 78 316 251 292 51 84 95 148 138 127 257 136 207 135 100 101 137 112 107 112 120 186 113 100 76 72 87 88 95 99 94 89 95 95 98 97 100 109 124 137 125 71 93 120 126 123 121 131 130 125 128 128 128 118 118 94 81 98 89 83 159 59 111 120 115 100 111
292 267 241 249 236 122 77 105 61 5 301 153 267 235 148 242 158 181 179 168 147 223 285 266 130 137 115 115 113 103 328 142 150 134 155 163 139 121 227 132 185 205 114 139 127 222 102 99 112 119 114 124 120 112 105 100 97 91 105 109 126 137 148 118 88 78 108 80 81 86 75 85 104 108 98 123 130 147 176 181 135 337 322 112 121 101 65
229 231 236 224 92 82 100 97 9 177 204 176 211 202 153 217 151 161 182 164 212 208 235 134 127 163 138 139 156 143 351 316 162 180 144 123 314 164 184 147 122 164 143 173 123 222 137 134 130 132 133 143 118 125 125 122 117 114 94 84 60 77 93 82 75 62 52 61 83 97 114 91 65 90 119 114 107 120 110 3 7 114 139 117 85 298 182
228 253 235 96 98 118 114 144 176 222 207 194 140 222 127 258 184 117 223 216 195 118 308 99 138 96 88 130 161 137 119 289 340 94 135 130 18 280 147 133 147 181 149 121 146 219 131 129 154 149 136 138 140 135 120 119 113 119 112 101 92 82 90 118 142 152 140 143 138 103 99 113 116 102 94 69 96 45 37 51 203 59 31 91 179 242 288
336 312 321 307 88 109 145 170 198 161 48 140 166 151 185 145 33 175 201 192 145 120 189 159 162 162 158 185 145 119 90 314 32 94 110 122 272 230 115 111 200 177 137 100 164 157 148 156 162 121 135 138 133 136 134 128 124 116 122 124 125 129 121 115 70 76 111 117 115 100 70 55 88 140 90 84 56 96 125 124 68 63 280 262 234 235 217
296 270 249 220 141 166 195 166 143 175 120 18 187 132 175 166 192 190 188 288 95 194 102 26 70 61 66 70 83 6 71 341 298 143 156 117 196 206 141 137 197 149 113 151 204 141 159 181 145 129 143 139 149 153 141 126 120 126 125 143 168 134 146 129 117 88 81 107 101 101 138 149 108 63 23 75 80 84 98 17 356 5 339 278 303 340 23
263 255 222 167 167 153 196 120 171 51 10 169 153 155 195 201 184 209 196 159 175 158 146 182 154 189 151 198 132 131 151 163 341 61 95 130 174 102 148 164 119 76 121 197 176 168 156 194 145 137 138 140 160 140 130 137 127 119 133 142 120 98 104 113 140 139 133 88 86 98 290 54 1 126 173 106 98 327 31 139 176 190 200 255 264 283 285
202 207 185 138 148 143 141 48 282 198 192 185 202 184 176 202 177 190 192 122 215 140 166 173 162 178 151 109 101 117 205 136 79 171 122 175 122 147 197 135 116 184 190 169 172 147 140 117 102 128 137 156 157 139 132 132 147 141 130 142 152 132 126 95 97 103 90 99 67 156 107 103 241 75 64 72 58 83 354 354 69 298 276 314 322 319 309
199 158 136 117 5 292 203 163 172 209 212 175 211 201 188 192 193 167 115 170 154 135 175 145 165 138 131 171 216 143 206 137 167 137 165 158 144 136 59 86 181 166 181 177 174 151 153 134 133 134 148 152 142 134 159 154 135 144 162 153 131 139 142 137 130 102 122 136 157 188 90 172 229 70 44 89 59 311 61 48 15 329 338 297 245 257 285
184 163 190 141 153 186 240 187 200 212 183 197 218 213 211 171 149 98 154 174 127 144 149 177 164 144 142 182 142 127 163 145 131 128 181 130 123 97 288 160 179 167 184 178 169 149 184 147 133 140 150 145 141 151 171 124 145 153 133 129 146 137 142 135 165 165 131 137 146 176 172 136 78 160 187 294 102 84 131 286 329 327 309 303 310 242 239
177 216 211 162 198 187 209 215 221 212 200 200 205 95 62 85 107 116 151 137 130 151 156 127 106 139 142 105 257 147 120 119 127 136 2 109 136 151 136 167 158 195 187 181 178 194 165 130 131 144 150 148 156 177 145 144 174 139 131 148 151 138 152 151 188 127 111 165 161 195 151 144 181 216 109 252 178 276 103 98 328 322 309 294 287 300 309
294 192 194 201 205 185 224 215 198 179 171 63 108 70 103 149 123 158 147 113 145 157 144 137 130 187 142 200 170 100 116 136 157 125 138 144 135 150 164 164 183 175 195 207 204 211 127 127 133 140 147 151 175 172 132 150 147 135 143 148 152 149 155 150 132 107 152 237 160 157 171 85 358 338 310 285 257 274 1 92 106 252 258 272 279 286 277
217 206 300 230 210 196 213 211 229 158 144 159 182 176 199 143 139 127 116 137 135 127 142 90 161 212 125 233 112 133 142 183 145 149 185 153 155 172 187 164 175 194 175 207 139 96 118 124 134 141 151 172 172 146 147 144 144 144 151 149 141 162 172 141 130 146 199 183 99 32 32 67 207 230 264 357 14 20 347 274 265 290 289 274 285 279 283
290 261 227 252 231 181 177 189 208 147 152 173 186 176 167 140 149 127 217 132 147 141 155 156 202 143 141 154 123 166 160 122 139 175 177 171 175 174 168 180 189 207 178 101 105 124 119 127 140 135 167 177 150 145 148 144 161 155 152 152 158 167 151 168 153 144 99 139 145 207 226 237 22 20 7 357 325 310 295 297 248 218 209 291 295 289 291
207 208 222 215 265 182 184 222 190 166 159 167 168 166 164 133 152 161 159 153 178 161 162 115 144 134 139 150 181 105 98 196 166 151 176 168 191 166 177 194 195 188 154 122 112 108 126 131 133 146 180 154 134 145 143 155 168 156 155 156 160 162 160 176 165 177 176 176 174 173 35 343 80 77 336 331 270 241 237 252 19 15 3 326 299 287 289